Location: Ch�tillon
(48.8024°N, 2.2935°E)
Time: 08:02:07
(UTC+00:00)

LO-87 - Pass Details

Date: 03 July 2022
Orbit: 451 x 466 km, 97.4° (Epoch: 09 August)

Event Time Altitude Azimuth Distance (km) Brightness Sun altitude
Exits shadow 00:27:47 14° 260° (W) 1,388 ? -17.9°
Maximum altitude 00:28:14 14° 269° (W) 1,375 ? -17.8°
Drops below altitude 10° 00:30:11 10° 304° (WNW) 1,623 ? -17.8°
Sets 00:33:02 0° 330° (NNW) 2,510 ? -17.7°
